When you browse on this site, cookies collect data to enhance your experience and personalize the content and advertising you see.
Visit our Privacy Policy to learn more. By continuing to use the site, you agree to this use of cookies and data.
  • In Schweiz
  • Länderverzeichnis
  • Für 7 Tage
  • Wassertemperatur
  • Wetterkarte
  • Widgets
  • user-avatar
    Anmelden

    Stündliche Wetter Kusty

    Heute, 3 Juni, Mittwoch

    Zeit Temperatur Niederschläge Wind Luftdruck Luftfeuchtigkeit
    00:00 +13°C° 1 mm 3 m/S 737 mmHg 94%
    01:00 +13°C° 1.4 mm 4 m/S 737 mmHg 95%
    02:00 +13°C° 1.4 mm 4 m/S 737 mmHg 96%
    03:00 +13°C° 0 mm 3 m/S 737 mmHg 98%
    04:00 +13°C° 0.4 mm 4 m/S 737 mmHg 98%
    05:00 +13°C° 0.4 mm 4 m/S 737 mmHg 98%
    06:00 +13°C° 0.4 mm 4 m/S 737 mmHg 97%
    07:00 +14°C° 0.5 mm 4 m/S 737 mmHg 96%
    08:00 +14°C° 0.5 mm 3 m/S 737 mmHg 95%
    09:00 +14°C° 0 mm 3 m/S 737 mmHg 95%
    10:00 +16°C° 0.4 mm 3 m/S 737 mmHg 92%
    11:00 +17°C° 0.4 mm 2 m/S 737 mmHg 89%
    12:00 +18°C° 0.4 mm 2 m/S 737 mmHg 86%
    13:00 +18°C° 0.5 mm 2 m/S 736 mmHg 85%
    14:00 +18°C° 0.5 mm 3 m/S 736 mmHg 84%
    15:00 +19°C° 0.5 mm 3 m/S 736 mmHg 83%
    16:00 +18°C° 3.5 mm 3 m/S 735 mmHg 87%
    17:00 +17°C° 3.5 mm 3 m/S 735 mmHg 91%
    18:00 +14°C° 3.5 mm 3 m/S 734 mmHg 95%
    19:00 +14°C° 4.8 mm 3 m/S 734 mmHg 96%
    20:00 +14°C° 4.8 mm 3 m/S 733 mmHg 97%
    21:00 +13°C° 4.8 mm 3 m/S 733 mmHg 97%
    22:00 +13°C° 0.4 mm 3 m/S 733 mmHg 97%
    23:00 +13°C° 0.4 mm 4 m/S 732 mmHg 97%

    Morgen, 4 Juni, Donnerstag

    Zeit Temperatur Niederschläge Wind Luftdruck Luftfeuchtigkeit
    00:00 +13°C° 0.4 mm 4 m/S 732 mmHg 97%
    01:00 +12°C° 0 mm 3 m/S 732 mmHg 97%
    02:00 +11°C° 0 mm 3 m/S 733 mmHg 97%
    03:00 +11°C° 0 mm 3 m/S 733 mmHg 97%
    04:00 +11°C° 0 mm 3 m/S 733 mmHg 96%
    05:00 +11°C° 0 mm 3 m/S 734 mmHg 95%
    06:00 +12°C° 0 mm 4 m/S 734 mmHg 94%
    07:00 +13°C° 0 mm 3 m/S 734 mmHg 90%
    08:00 +16°C° 0 mm 3 m/S 734 mmHg 86%
    09:00 +17°C° 0 mm 3 m/S 735 mmHg 82%
    10:00 +18°C° 0.4 mm 4 m/S 735 mmHg 80%
    11:00 +18°C° 0.4 mm 4 m/S 735 mmHg 79%
    12:00 +19°C° 0.4 mm 5 m/S 735 mmHg 77%
    13:00 +19°C° 0.7 mm 6 m/S 735 mmHg 76%
    14:00 +19°C° 0.7 mm 6 m/S 735 mmHg 76%
    15:00 +18°C° 0.7 mm 7 m/S 735 mmHg 75%
    16:00 +17°C° 0.2 mm 6 m/S 736 mmHg 77%
    17:00 +17°C° 0.2 mm 6 m/S 736 mmHg 79%
    18:00 +16°C° 0.2 mm 5 m/S 736 mmHg 81%
    19:00 +15°C° 0 mm 5 m/S 736 mmHg 85%
    20:00 +14°C° 0 mm 4 m/S 737 mmHg 88%
    21:00 +13°C° 0 mm 3 m/S 737 mmHg 92%
    22:00 +12°C° 0 mm 3 m/S 737 mmHg 93%
    23:00 +12°C° 0 mm 3 m/S 738 mmHg 94%

    übermorgen, 5 Juni, Freitag

    Zeit Temperatur Niederschläge Wind Luftdruck Luftfeuchtigkeit
    00:00 +11°C° 0 mm 3 m/S 738 mmHg 94%
    01:00 +11°C° 0 mm 3 m/S 738 mmHg 95%
    02:00 +11°C° 0 mm 3 m/S 738 mmHg 95%
    03:00 +11°C° 0 mm 3 m/S 739 mmHg 95%
    04:00 +11°C° 0 mm 4 m/S 739 mmHg 94%
    05:00 +12°C° 0 mm 4 m/S 739 mmHg 92%
    06:00 +12°C° 0 mm 4 m/S 739 mmHg 91%
    07:00 +13°C° 0 mm 5 m/S 739 mmHg 87%
    08:00 +15°C° 0 mm 5 m/S 739 mmHg 83%
    09:00 +16°C° 0 mm 5 m/S 739 mmHg 80%
    10:00 +17°C° 0.3 mm 6 m/S 739 mmHg 77%
    11:00 +19°C° 0.3 mm 6 m/S 739 mmHg 75%
    12:00 +18°C° 0.3 mm 7 m/S 739 mmHg 72%
    13:00 +18°C° 0.6 mm 7 m/S 739 mmHg 73%
    14:00 +18°C° 0.6 mm 7 m/S 739 mmHg 74%
    15:00 +18°C° 0.6 mm 7 m/S 739 mmHg 74%
    16:00 +16°C° 0.3 mm 6 m/S 739 mmHg 78%
    17:00 +15°C° 0.3 mm 5 m/S 739 mmHg 82%
    18:00 +14°C° 0.3 mm 4 m/S 739 mmHg 86%
    19:00 +14°C° 0 mm 4 m/S 739 mmHg 89%
    20:00 +13°C° 0 mm 3 m/S 739 mmHg 91%
    21:00 +12°C° 0 mm 3 m/S 739 mmHg 94%
    22:00 +12°C° 0 mm 3 m/S 739 mmHg 95%
    23:00 +12°C° 0 mm 3 m/S 739 mmHg 96%

    6 Juni, Samstag

    Zeit Temperatur Niederschläge Wind Luftdruck Luftfeuchtigkeit
    00:00 +11°C° 0 mm 3 m/S 739 mmHg 96%
    01:00 +11°C° 0 mm 3 m/S 739 mmHg 97%
    02:00 +12°C° 0 mm 3 m/S 739 mmHg 97%
    03:00 +12°C° 0 mm 4 m/S 739 mmHg 97%
    04:00 +12°C° 0 mm 4 m/S 740 mmHg 97%
    05:00 +13°C° 0 mm 3 m/S 740 mmHg 97%
    06:00 +13°C° 0 mm 3 m/S 740 mmHg 97%
    07:00 +14°C° 0 mm 4 m/S 740 mmHg 95%
    08:00 +15°C° 0 mm 4 m/S 740 mmHg 94%
    09:00 +17°C° 0 mm 4 m/S 741 mmHg 93%
    10:00 +18°C° 0 mm 4 m/S 741 mmHg 89%
    11:00 +20°C° 0 mm 4 m/S 741 mmHg 84%
    12:00 +22°C° 0 mm 4 m/S 741 mmHg 80%
    13:00 +22°C° 0.4 mm 5 m/S 741 mmHg 80%
    14:00 +23°C° 0.4 mm 5 m/S 741 mmHg 79%
    15:00 +23°C° 0.4 mm 5 m/S 741 mmHg 78%
    16:00 +23°C° 0.7 mm 4 m/S 741 mmHg 80%
    17:00 +23°C° 0.7 mm 4 m/S 741 mmHg 82%
    18:00 +22°C° 0.7 mm 3 m/S 741 mmHg 84%
    19:00 +21°C° 0.4 mm 3 m/S 741 mmHg 87%
    20:00 +20°C° 0.4 mm 3 m/S 742 mmHg 90%
    21:00 +19°C° 0.4 mm 3 m/S 742 mmHg 93%
    22:00 +19°C° 0.4 mm 3 m/S 742 mmHg 93%
    23:00 +18°C° 0.4 mm 3 m/S 742 mmHg 94%

    7 Juni, Sonntag

    Zeit Temperatur Niederschläge Wind Luftdruck Luftfeuchtigkeit
    00:00 +18°C° 0.4 mm 3 m/S 743 mmHg 95%
    01:00 +18°C° 0 mm 3 m/S 743 mmHg 95%
    02:00 +17°C° 0 mm 3 m/S 743 mmHg 95%
    03:00 +17°C° 0 mm 3 m/S 743 mmHg 95%
    04:00 +17°C° 0 mm 3 m/S 743 mmHg 95%
    05:00 +18°C° 0 mm 3 m/S 744 mmHg 94%
    06:00 +18°C° 0 mm 4 m/S 744 mmHg 93%
    07:00 +19°C° 0 mm 4 m/S 744 mmHg 90%
    08:00 +20°C° 0 mm 4 m/S 745 mmHg 87%
    09:00 +22°C° 0 mm 4 m/S 745 mmHg 84%
    10:00 +23°C° 0.2 mm 4 m/S 745 mmHg 80%
    11:00 +25°C° 0.2 mm 4 m/S 746 mmHg 76%
    12:00 +26°C° 0.2 mm 4 m/S 746 mmHg 72%
    13:00 +26°C° 0.1 mm 4 m/S 746 mmHg 70%
    14:00 +26°C° 0.1 mm 4 m/S 746 mmHg 68%
    15:00 +27°C° 0.1 mm 4 m/S 746 mmHg 67%
    16:00 +27°C° 0 mm 3 m/S 745 mmHg 71%
    17:00 +26°C° 0 mm 3 m/S 745 mmHg 74%
    18:00 +26°C° 0 mm 2 m/S 745 mmHg 78%
    19:00 +24°C° 0 mm 2 m/S 746 mmHg 81%
    20:00 +23°C° 0 mm 2 m/S 746 mmHg 84%
    21:00 +20°C° 0 mm 2 m/S 746 mmHg 87%
    22:00 +20°C° 0 mm 2 m/S 746 mmHg 88%
    23:00 +20°C° 0 mm 1 m/S 746 mmHg 89%

    8 Juni, Montag

    Zeit Temperatur Niederschläge Wind Luftdruck Luftfeuchtigkeit
    00:00 +19°C° 0 mm 1 m/S 746 mmHg 90%
    01:00 +19°C° 0 mm 1 m/S 746 mmHg 90%
    02:00 +18°C° 0 mm 1 m/S 746 mmHg 89%
    03:00 +18°C° 0 mm 1 m/S 746 mmHg 88%
    04:00 +18°C° 0 mm 1 m/S 746 mmHg 88%
    05:00 +19°C° 0 mm 1 m/S 746 mmHg 88%
    06:00 +19°C° 0 mm 1 m/S 746 mmHg 87%
    07:00 +20°C° 0 mm 2 m/S 747 mmHg 84%
    08:00 +23°C° 0 mm 2 m/S 747 mmHg 81%
    09:00 +24°C° 0 mm 2 m/S 747 mmHg 77%
    10:00 +25°C° 0 mm 2 m/S 747 mmHg 73%
    11:00 +26°C° 0 mm 2 m/S 747 mmHg 69%
    12:00 +27°C° 0 mm 2 m/S 747 mmHg 65%
    13:00 +27°C° 0 mm 3 m/S 747 mmHg 64%
    14:00 +27°C° 0 mm 3 m/S 747 mmHg 64%
    15:00 +28°C° 0 mm 3 m/S 746 mmHg 63%
    16:00 +27°C° 0 mm 2 m/S 746 mmHg 67%
    17:00 +27°C° 0 mm 2 m/S 746 mmHg 72%
    18:00 +27°C° 0 mm 2 m/S 746 mmHg 76%
    19:00 +25°C° 0 mm 2 m/S 746 mmHg 78%
    20:00 +24°C° 0 mm 2 m/S 746 mmHg 80%
    21:00 +21°C° 0 mm 2 m/S 746 mmHg 82%
    22:00 +20°C° 0 mm 2 m/S 746 mmHg 83%
    23:00 +20°C° 0 mm 2 m/S 746 mmHg 84%
    Mehr zeigen